Time,TemperatureF,DewpointF,PressureIn,WindDirection,WindDirectionDegrees,WindSpeedMPH,WindSpeedGustMPH,Humidity,HourlyPrecipIn,Conditions,Clouds,dailyrainin,SoftwareType,DateUTC
2013-03-05 00:00:00,12.9,6.0,30.65,West,260,0.0,3.0,73,0.00,,,0.00,weatherlink.com 1.10,2013-03-05 07:00:00,
2013-03-05 00:15:00,12.9,6.0,30.65,West,260,0.0,2.0,74,0.00,,,0.00,weatherlink.com 1.10,2013-03-05 07:15:00,
2013-03-05 00:30:00,12.4,6.0,30.66,West,260,3.0,3.0,75,0.00,,,0.00,weatherlink.com 1.10,2013-03-05 07:30:00,
2013-03-05 00:45:00,13.5,5.0,30.66,West,260,1.0,4.0,69,0.00,,,0.00,weatherlink.com 1.10,2013-03-05 07:45:00,
2013-03-05 01:00:00,12.9,5.0,30.66,West,260,0.0,3.0,71,0.00,,,0.00,weatherlink.com 1.10,2013-03-05 08:00:00,
2013-03-05 01:15:00,12.4,6.0,30.66,West,260,0.0,2.0,74,0.00,,,0.00,weatherlink.com 1.10,2013-03-05 08:15:00,
2013-03-05 01:30:00,12.9,5.0,30.66,West,260,4.0,5.0,70,0.00,,,0.00,weatherlink.com 1.10,2013-03-05 08:30:00,
2013-03-05 01:45:00,12.8,5.0,30.66,West,260,2.0,2.0,70,0.00,,,0.00,weatherlink.com 1.10,2013-03-05 08:45:00,
2013-03-05 02:00:00,12.6,4.0,30.66,West,260,1.0,3.0,69,0.00,,,0.00,weatherlink.com 1.10,2013-03-05 09:00:00,
2013-03-05 02:15:00,11.9,4.0,30.66,West,260,0.0,1.0,71,0.00,,,0.00,weatherlink.com 1.10,2013-03-05 09:15:00,
2013-03-05 02:30:00,11.4,4.0,30.66,West,260,1.0,4.0,73,0.00,,,0.00,weatherlink.com 1.10,2013-03-05 09:30:00,
2013-03-05 02:45:00,11.2,4.0,30.66,West,260,1.0,4.0,71,0.00,,,0.00,weatherlink.com 1.10,2013-03-05 09:45:00,
2013-03-05 03:00:00,11.2,4.0,30.65,West,260,0.0,3.0,71,0.00,,,0.00,weatherlink.com 1.10,2013-03-05 10:00:00,
2013-03-05 03:16:00,11.6,4.0,30.65,West,260,1.0,3.0,71,0.00,,,0.00,weatherlink.com 1.10,2013-03-05 10:16:00,
2013-03-05 03:31:00,11.6,3.0,30.65,West,260,2.0,3.0,69,0.00,,,0.00,weatherlink.com 1.10,2013-03-05 10:31:00,
2013-03-05 03:46:00,13.6,3.0,30.65,West,260,2.0,4.0,62,0.00,,,0.00,weatherlink.com 1.10,2013-03-05 10:46:00,
2013-03-05 04:01:00,14.4,3.0,30.65,SSW,207,2.0,6.0,60,0.00,,,0.00,weatherlink.com 1.10,2013-03-05 11:01:00,
2013-03-05 04:16:00,13.1,3.0,30.65,SSW,207,1.0,3.0,63,0.00,,,0.00,weatherlink.com 1.10,2013-03-05 11:16:00,
2013-03-05 04:31:00,13.6,2.0,30.64,SSW,207,0.0,2.0,60,0.00,,,0.00,weatherlink.com 1.10,2013-03-05 11:31:00,
2013-03-05 04:46:00,14.3,3.0,30.65,SSW,207,1.0,4.0,61,0.00,,,0.00,weatherlink.com 1.10,2013-03-05 11:46:00,
2013-03-05 05:01:00,12.9,2.0,30.65,SSW,207,3.0,3.0,61,0.00,,,0.00,weatherlink.com 1.10,2013-03-05 12:01:00,
2013-03-05 05:16:00,14.1,2.0,30.65,SSW,210,1.0,3.0,59,0.00,,,0.00,weatherlink.com 1.10,2013-03-05 12:16:00,
2013-03-05 05:31:00,15.1,2.0,30.65,SSW,210,4.0,6.0,56,0.00,,,0.00,weatherlink.com 1.10,2013-03-05 12:31:00,
2013-03-05 05:46:00,15.9,1.0,30.64,SW,221,8.0,9.0,53,0.00,,,0.00,weatherlink.com 1.10,2013-03-05 12:46:00,
2013-03-05 06:01:00,16.7,1.0,30.64,SSW,204,7.0,12.0,51,0.00,,,0.00,weatherlink.com 1.10,2013-03-05 13:01:00,
2013-03-05 06:16:00,17.0,1.0,30.65,SW,215,7.0,10.0,49,0.00,,,0.00,weatherlink.com 1.10,2013-03-05 13:16:00,
2013-03-05 06:31:00,16.9,1.0,30.65,SSW,201,7.0,9.0,49,0.00,,,0.00,weatherlink.com 1.10,2013-03-05 13:31:00,
2013-03-05 06:46:00,16.5,0.0,30.65,WSW,243,3.0,7.0,49,0.00,,,0.00,weatherlink.com 1.10,2013-03-05 13:46:00,
2013-03-05 07:01:00,16.5,1.0,30.66,WSW,245,2.0,7.0,50,0.00,,,0.00,weatherlink.com 1.10,2013-03-05 14:01:00,
2013-03-05 07:16:00,14.3,1.0,30.66,WSW,245,0.0,2.0,55,0.00,,,0.00,weatherlink.com 1.10,2013-03-05 14:16:00,
2013-03-05 07:31:00,13.1,2.0,30.66,WSW,245,2.0,3.0,62,0.00,,,0.00,weatherlink.com 1.10,2013-03-05 14:31:00,
2013-03-05 07:46:00,15.2,2.0,30.67,WSW,245,0.0,2.0,56,0.00,,,0.00,weatherlink.com 1.10,2013-03-05 14:46:00,
2013-03-05 08:01:00,17.2,2.0,30.66,ESE,111,3.0,5.0,51,0.00,,,0.00,weatherlink.com 1.10,2013-03-05 15:01:00,
2013-03-05 08:16:00,16.1,3.0,30.66,East,95,5.0,9.0,57,0.00,,,0.00,weatherlink.com 1.10,2013-03-05 15:16:00,
2013-03-05 08:31:00,16.7,7.0,30.67,ESE,105,4.0,8.0,65,0.00,,,0.00,weatherlink.com 1.10,2013-03-05 15:31:00,
2013-03-05 08:46:00,17.0,8.0,30.67,East,95,5.0,7.0,67,0.00,,,0.00,weatherlink.com 1.10,2013-03-05 15:46:00,
2013-03-05 09:01:00,18.3,8.0,30.67,East,95,5.0,8.0,64,0.00,,,0.00,weatherlink.com 1.10,2013-03-05 16:01:00,
2013-03-05 09:17:00,18.9,8.0,30.67,East,98,5.0,6.0,63,0.00,,,0.00,weatherlink.com 1.10,2013-03-05 16:17:00,
2013-03-05 09:32:00,20.0,8.0,30.66,East,98,2.0,5.0,61,0.00,,,0.00,weatherlink.com 1.10,2013-03-05 16:32:00,
2013-03-05 09:47:00,24.4,10.0,30.66,East,97,0.0,2.0,54,0.00,,,0.00,weatherlink.com 1.10,2013-03-05 16:47:00,
2013-03-05 10:02:00,22.5,8.0,30.66,East,100,5.0,7.0,54,0.00,,,0.00,weatherlink.com 1.10,2013-03-05 17:02:00,
2013-03-05 10:17:00,22.2,8.0,30.65,ESE,102,3.0,7.0,55,0.00,,,0.00,weatherlink.com 1.10,2013-03-05 17:17:00,
2013-03-05 10:32:00,23.2,8.0,30.65,East,92,2.0,6.0,52,0.00,,,0.00,weatherlink.com 1.10,2013-03-05 17:32:00,
2013-03-05 10:47:00,23.6,8.0,30.64,East,90,6.0,6.0,52,0.00,,,0.00,weatherlink.com 1.10,2013-03-05 17:47:00,
2013-03-05 11:02:00,24.4,9.0,30.64,East,97,2.0,7.0,52,0.00,,,0.00,weatherlink.com 1.10,2013-03-05 18:02:00,
2013-03-05 11:17:00,25.1,10.0,30.63,ESE,102,5.0,8.0,52,0.00,,,0.00,weatherlink.com 1.10,2013-03-05 18:17:00,
2013-03-05 11:32:00,24.5,8.0,30.62,East,98,7.0,9.0,50,0.00,,,0.00,weatherlink.com 1.10,2013-03-05 18:32:00,
2013-03-05 11:47:00,25.3,10.0,30.62,East,89,5.0,9.0,52,0.00,,,0.00,weatherlink.com 1.10,2013-03-05 18:47:00,
2013-03-05 12:02:00,26.1,10.0,30.61,NE,49,3.0,8.0,50,0.00,,,0.00,weatherlink.com 1.10,2013-03-05 19:02:00,
2013-03-05 12:17:00,27.0,11.0,30.61,East,92,5.0,7.0,50,0.00,,,0.00,weatherlink.com 1.10,2013-03-05 19:17:00,
2013-03-05 12:33:00,28.1,12.0,30.60,East,97,5.0,6.0,50,0.00,,,0.00,weatherlink.com 1.10,2013-03-05 19:33:00,
2013-03-05 12:48:00,28.8,12.0,30.58,East,99,3.0,7.0,49,0.00,,,0.00,weatherlink.com 1.10,2013-03-05 19:48:00,
2013-03-05 13:03:00,29.7,12.0,30.57,East,95,6.0,7.0,47,0.00,,,0.00,weatherlink.com 1.10,2013-03-05 20:03:00,
2013-03-05 13:33:00,31.0,13.0,30.55,East,100,5.0,9.0,48,0.00,,,0.00,weatherlink.com 1.10,2013-03-05 20:33:00,
2013-03-05 13:48:00,31.8,13.0,30.54,East,94,3.0,9.0,46,0.00,,,0.00,weatherlink.com 1.10,2013-03-05 20:48:00,
2013-03-05 14:03:00,32.5,14.0,30.53,East,97,3.0,8.0,46,0.00,,,0.00,weatherlink.com 1.10,2013-03-05 21:03:00,
2013-03-05 14:18:00,32.9,13.0,30.52,East,96,8.0,9.0,44,0.00,,,0.00,weatherlink.com 1.10,2013-03-05 21:18:00,
2013-03-05 14:33:00,32.9,13.0,30.52,East,92,6.0,10.0,44,0.00,,,0.00,weatherlink.com 1.10,2013-03-05 21:33:00,
2013-03-05 14:48:00,33.1,12.0,30.52,East,87,8.0,11.0,42,0.00,,,0.00,weatherlink.com 1.10,2013-03-05 21:48:00,
2013-03-05 15:03:00,33.1,12.0,30.52,ENE,66,7.0,10.0,42,0.00,,,0.00,weatherlink.com 1.10,2013-03-05 22:03:00,
2013-03-05 15:18:00,34.1,11.0,30.52,ESE,103,7.0,10.0,38,0.00,,,0.00,weatherlink.com 1.10,2013-03-05 22:18:00,
2013-03-05 15:33:00,33.8,11.0,30.51,East,100,7.0,9.0,39,0.00,,,0.00,weatherlink.com 1.10,2013-03-05 22:33:00,
2013-03-05 15:48:00,35.0,10.0,30.50,East,97,6.0,11.0,36,0.00,,,0.00,weatherlink.com 1.10,2013-03-05 22:48:00,
2013-03-05 16:04:00,34.6,10.0,30.50,ESE,105,7.0,15.0,36,0.00,,,0.00,weatherlink.com 1.10,2013-03-05 23:04:00,
2013-03-05 16:19:00,34.4,9.0,30.50,East,91,6.0,10.0,35,0.00,,,0.00,weatherlink.com 1.10,2013-03-05 23:19:00,
2013-03-05 16:34:00,34.6,4.0,30.49,ESE,118,5.0,9.0,28,0.00,,,0.00,weatherlink.com 1.10,2013-03-05 23:34:00,
2013-03-05 16:49:00,34.0,6.0,30.48,East,93,6.0,7.0,31,0.00,,,0.00,weatherlink.com 1.10,2013-03-05 23:49:00,
2013-03-05 17:04:00,33.5,7.0,30.48,East,93,2.0,7.0,33,0.00,,,0.00,weatherlink.com 1.10,2013-03-06 00:04:00,
2013-03-05 17:19:00,34.0,11.0,30.47,East,93,1.0,5.0,38,0.00,,,0.00,weatherlink.com 1.10,2013-03-06 00:19:00,
2013-03-05 17:34:00,33.4,12.0,30.47,East,93,2.0,5.0,41,0.00,,,0.00,weatherlink.com 1.10,2013-03-06 00:34:00,
2013-03-05 17:49:00,32.7,13.0,30.46,East,93,0.0,3.0,44,0.00,,,0.00,weatherlink.com 1.10,2013-03-06 00:49:00,
2013-03-05 18:04:00,30.4,13.0,30.46,West,273,1.0,3.0,49,0.00,,,0.00,weatherlink.com 1.10,2013-03-06 01:04:00,
2013-03-05 18:19:00,28.5,14.0,30.46,South,182,0.0,3.0,55,0.00,,,0.00,weatherlink.com 1.10,2013-03-06 01:19:00,
2013-03-05 18:34:00,26.7,12.0,30.46,SW,232,2.0,5.0,55,0.00,,,0.00,weatherlink.com 1.10,2013-03-06 01:34:00,
2013-03-05 18:49:00,25.8,12.0,30.46,SW,232,4.0,4.0,56,0.00,,,0.00,weatherlink.com 1.10,2013-03-06 01:49:00,
2013-03-05 19:04:00,25.1,12.0,30.46,WSW,240,1.0,5.0,59,0.00,,,0.00,weatherlink.com 1.10,2013-03-06 02:04:00,
2013-03-05 19:19:00,24.5,11.0,30.47,WSW,240,5.0,5.0,56,0.00,,,0.00,weatherlink.com 1.10,2013-03-06 02:19:00,
2013-03-05 19:35:00,23.9,10.0,30.46,West,273,4.0,7.0,56,0.00,,,0.00,weatherlink.com 1.10,2013-03-06 02:35:00,
2013-03-05 19:50:00,23.2,11.0,30.46,NW,317,2.0,6.0,60,0.00,,,0.00,weatherlink.com 1.10,2013-03-06 02:50:00,
2013-03-05 20:05:00,22.9,11.0,30.46,WSW,237,3.0,5.0,61,0.00,,,0.00,weatherlink.com 1.10,2013-03-06 03:05:00,
2013-03-05 20:20:00,22.7,10.0,30.47,WSW,237,3.0,4.0,59,0.00,,,0.00,weatherlink.com 1.10,2013-03-06 03:20:00,
2013-03-05 20:35:00,22.5,9.0,30.48,WSW,243,7.0,8.0,56,0.00,,,0.00,weatherlink.com 1.10,2013-03-06 03:35:00,
2013-03-05 20:50:00,22.1,9.0,30.48,SW,225,2.0,7.0,58,0.00,,,0.00,weatherlink.com 1.10,2013-03-06 03:50:00,
2013-03-05 21:05:00,21.9,9.0,30.47,SW,228,1.0,7.0,58,0.00,,,0.00,weatherlink.com 1.10,2013-03-06 04:05:00,
2013-03-05 21:20:00,21.9,9.0,30.47,West,274,2.0,6.0,57,0.00,,,0.00,weatherlink.com 1.10,2013-03-06 04:20:00,
2013-03-05 21:35:00,21.8,9.0,30.48,WSW,256,4.0,4.0,58,0.00,,,0.00,weatherlink.com 1.10,2013-03-06 04:35:00,
2013-03-05 21:50:00,21.3,8.0,30.48,SW,231,3.0,4.0,58,0.00,,,0.00,weatherlink.com 1.10,2013-03-06 04:50:00,
2013-03-05 22:05:00,21.0,9.0,30.48,SW,231,3.0,5.0,60,0.00,,,0.00,weatherlink.com 1.10,2013-03-06 05:05:00,
2013-03-05 22:20:00,20.8,6.0,30.47,SW,233,3.0,9.0,53,0.00,,,0.00,weatherlink.com 1.10,2013-03-06 05:20:00,
2013-03-05 22:35:00,21.3,8.0,30.46,WSW,253,2.0,5.0,57,0.00,,,0.00,weatherlink.com 1.10,2013-03-06 05:35:00,
2013-03-05 22:50:00,21.3,7.0,30.45,WNW,295,3.0,10.0,55,0.00,,,0.00,weatherlink.com 1.10,2013-03-06 05:50:00,
2013-03-05 23:06:00,20.8,8.0,30.45,SW,224,1.0,7.0,59,0.00,,,0.00,weatherlink.com 1.10,2013-03-06 06:06:00,
2013-03-05 23:21:00,20.8,8.0,30.45,SSW,213,3.0,6.0,57,0.00,,,0.00,weatherlink.com 1.10,2013-03-06 06:21:00,
2013-03-05 23:36:00,20.3,6.0,30.44,South,181,0.0,6.0,55,0.00,,,0.00,weatherlink.com 1.10,2013-03-06 06:36:00,
2013-03-05 23:51:00,20.5,7.0,30.44,WNW,293,2.0,5.0,56,0.00,,,0.00,weatherlink.com 1.10,2013-03-06 06:51:00,